This is the latest recevied weather packets stored in our database for station/object KC1IUC-13. If no packets are shown the sender has not sent any weather packets the latest 10 day(s).
| Time | Temp. | Humidity | Pressure | Rain* | Wind** | Luminosity | Snow |
|---|---|---|---|---|---|---|---|
| 1777856044 | 10° C | 43% | 1007 hPa | 0 mm | - | 0 W/m² | - |
| 1777855504 | 10° C | 43% | 1007 hPa | 0 mm | - | 0 W/m² | - |
| 1777854964 | 10° C | 42% | 1007 hPa | 0 mm | - | 0 W/m² | - |
| 1777854424 | 10° C | 42% | 1006.6 hPa | 0 mm | - | 0 W/m² | - |
| 1777853884 | 10.56° C | 42% | 1006.6 hPa | 0 mm | - | 0 W/m² | - |
| 1777853344 | 11.11° C | 42% | 1006.3 hPa | 0 mm | - | 0 W/m² | - |
| 1777852804 | 11.11° C | 42% | 1006.6 hPa | 0 mm | - | 0 W/m² | - |
| 1777852444 | 11.11° C | 42% | 1006.3 hPa | 0 mm | - | 0 W/m² | - |
| 1777851904 | 11.11° C | 42% | 1005.9 hPa | 0 mm | - | 2 W/m² | - |
| 1777851364 | 11.11° C | 42% | 1005.9 hPa | 0 mm | - | 4 W/m² | - |
| 1777850824 | 11.11° C | 42% | 1005.9 hPa | 0 mm | - | 7 W/m² | - |
| 1777850284 | 11.67° C | 42% | 1005.9 hPa | 0 mm | - | 9 W/m² | - |
| 1777849744 | 11.67° C | 42% | 1005.9 hPa | 0 mm | - | 10 W/m² | - |
| 1777849204 | 11.67° C | 42% | 1005.9 hPa | 0 mm | - | 12 W/m² | - |
| 1777848844 | 12.22° C | 42% | 1005.6 hPa | 0 mm | - | 13 W/m² | - |
| 1777848304 | 12.22° C | 42% | 1005.6 hPa | 0 mm | - | 15 W/m² | - |
| 1777847764 | 12.22° C | 42% | 1005.9 hPa | 0 mm | - | 16 W/m² | - |
| 1777847224 | 12.22° C | 42% | 1005.6 hPa | 0 mm | - | 17 W/m² | - |
| 1777846684 | 12.22° C | 43% | 1005.9 hPa | 0 mm | - | 19 W/m² | - |
| 1777846144 | 12.22° C | 43% | 1005.6 hPa | 0 mm | - | 20 W/m² | - |
| 1777845604 | 12.22° C | 43% | 1005.6 hPa | 0 mm | - | 22 W/m² | - |
| 1777845244 | 12.22° C | 43% | 1005.6 hPa | 0 mm | - | 24 W/m² | - |
| 1777844704 | 12.78° C | 43% | 1005.6 hPa | 0 mm | - | 22 W/m² | - |
| 1777844164 | 12.78° C | 43% | 1005.2 hPa | 0 mm | - | 28 W/m² | - |
| 1777843624 | 12.78° C | 43% | 1005.6 hPa | 0 mm | - | 32 W/m² | - |
* Rain latest hour (hover to see other rain measurements)
** Current wind speed in m/s (hover to see current wind gust speed)